Home > Weather > Wilmington > Past weeks

Flag for USA Weather for the Past 2 Weeks in Wilmington, North Carolina, USA

Now
68 °F

Mostly cloudy.


Feels Like: 68 °F
Forecast: 64 / 80 °F
Wind: 7 mph from Southwest

Location: New Hanover International Airport

Current Time: May 4, 2016 at 9:52:40 AM

Latest Report: May 4, 2016 at 9:02 AM


Visibility: 10 mi

Pressure: 29.69 "Hg

Humidity: 93%

Dew Point: 66 °F

Location of WilmingtonLocation

Historic Weather in Wilmington — Graph

°F

Wilmington Temperature Yesterday

Maximum temperature yesterday: 75 °F (at 2:53 PM)
Minimum temperature yesterday: 65 °F (at 7:57 AM)
Average temperature yesterday: 71 °F

High & Low Weather Summary for the Past Weeks

 TemperatureHumidityPressure
High89 °F (Apr 19, 3:53 PM)97% (Apr 23, 2:53 AM)30.22 "Hg (Apr 23, 2:53 AM)
Low50 °F (Apr 25, 3:53 AM)19% (Apr 19, 3:53 PM)29.67 "Hg (May 4, 3:53 AM)
Average69 °F73%29.99 "Hg
* Reported Apr 19 9:53 AM — May 4 9:02 AM, Wilmington, Weather by CustomWeather, © 2016

Note: Actual official high and low records may vary slightly from our data, if they occured in-between our weather recording intervals... More about our weather records

Advertising

Wilmington Weather History for the Previous 24 Hours

Scroll right to see more
 ConditionsComfort  
Time TempWeatherWind HumidityBarometerVisibility
9:02 AM
Wed, May 4
68 °FMostly cloudy.7 mph93%29.69 "Hg10 mi
7:53 AM67 °FPartly sunny.3 mph90%29.68 "Hg10 mi
6:53 AM65 °FPartly cloudy.5 mph94%29.69 "Hg10 mi
6:03 AM67 °FThundershowers. Partly cloudy.10 mph85%29.69 "Hg10 mi
4:53 AM68 °FPassing clouds.10 mph82%29.69 "Hg10 mi
3:53 AM68 °FClear.8 mph87%29.67 "Hg10 mi
2:53 AM70 °FPassing clouds.7 mph90%29.69 "Hg10 mi
1:53 AM72 °FPassing clouds.14 mph87%29.71 "Hg10 mi
12:53 AM72 °FPassing clouds.9 mph91%29.73 "Hg10 mi
11:53 PM
Tue, May 3
71 °FPassing clouds.12 mph96%29.74 "Hg9 mi
10:53 PM70 °FFog.7 mph97%29.76 "Hg6 mi
9:53 PM70 °FClear.8 mph90%29.77 "Hg10 mi
8:53 PM67 °FSunny.6 mph93%29.77 "Hg10 mi
7:53 PM70 °FThundershowers. Passing clouds.13 mph90%29.76 "Hg10 mi
6:53 PM73 °FThundershowers. Partly sunny.8 mph84%29.78 "Hg10 mi
5:53 PM74 °FOvercast.5 mph82%29.77 "Hg10 mi
4:53 PM75 °FPassing clouds.9 mph79%29.77 "Hg10 mi
3:53 PM73 °FSunny.8 mph81%29.78 "Hg10 mi
3:04 PM75 °FScattered clouds.9 mph79%29.80 "Hg10 mi
2:53 PM75 °FPartly sunny.9 mph79%29.80 "Hg10 mi
1:53 PM74 °FPartly sunny.7 mph79%29.83 "Hg10 mi
12:53 PM70 °FBroken clouds.3 mph90%29.85 "Hg10 mi
11:53 AM66 °FLight rain. Partly sunny.No wind96%29.85 "Hg10 mi
10:53 AM66 °FHeavy rain. Fog.No wind93%29.90 "Hg3 mi
10:02 AM66 °FRain. Fog.6 mph96%29.90 "Hg5 mi
9:53 AM66 °FThundershowers. Fog.5 mph96%29.90 "Hg6 mi
9:03 AM65 °FThunderstorms. Fog.No wind97%29.90 "Hg1 mi
Weather by CustomWeather, © 2016

See weather overviewHow to use our weather pages